Time,TemperatureF,DewpointF,PressureIn,WindDirection,WindDirectionDegrees,WindSpeedMPH,WindSpeedGustMPH,Humidity,HourlyPrecipIn,Conditions,Clouds,dailyrainin,SoftwareType,DateUTC
2013-02-04 00:03:00,29.8,24.1,29.74,South,180,6.9,6.9,79,0.00,CLR,,0.00,WeatherDisplay:10.37,2013-02-04 06:03:00,
2013-02-04 00:08:00,29.8,24.1,29.74,SW,225,7.0,7.3,79,0.00,CLR,,0.00,WeatherDisplay:10.37,2013-02-04 06:08:00,
2013-02-04 00:13:00,29.8,24.1,29.73,SW,225,5.8,5.8,79,0.00,CLR,,0.00,WeatherDisplay:10.37,2013-02-04 06:13:00,
2013-02-04 00:18:00,30.0,24.3,29.73,WSW,248,8.1,8.1,79,0.00,CLR,,0.00,WeatherDisplay:10.37,2013-02-04 06:18:00,
2013-02-04 00:23:00,30.4,24.6,29.73,SW,225,8.1,8.1,79,0.00,CLR,,0.00,WeatherDisplay:10.37,2013-02-04 06:23:00,
2013-02-04 00:28:00,30.6,24.8,29.73,WSW,248,7.0,7.5,79,0.00,CLR,,0.00,WeatherDisplay:10.37,2013-02-04 06:28:00,
2013-02-04 00:33:00,30.9,25.2,29.73,SW,225,3.5,3.5,79,0.00,CLR,,0.00,WeatherDisplay:10.37,2013-02-04 06:33:00,
2013-02-04 00:38:00,31.1,25.3,29.73,SW,225,8.1,8.3,79,0.00,CLR,,0.00,WeatherDisplay:10.37,2013-02-04 06:38:00,
2013-02-04 00:43:00,31.5,25.7,29.72,WSW,248,6.9,6.9,79,0.00,CLR,,0.00,WeatherDisplay:10.37,2013-02-04 06:43:00,
2013-02-04 00:48:00,32.2,26.7,29.72,WSW,248,7.8,7.8,80,0.00,CLR,,0.00,WeatherDisplay:10.37,2013-02-04 06:48:00,
2013-02-04 00:53:00,32.2,26.4,29.72,SW,225,8.1,8.1,79,0.00,CLR,,0.00,WeatherDisplay:10.37,2013-02-04 06:53:00,
2013-02-04 00:58:00,32.4,26.6,29.72,SW,225,6.9,7.2,79,0.00,CLR,,0.00,WeatherDisplay:10.37,2013-02-04 06:58:00,
2013-02-04 01:03:00,32.4,26.6,29.72,WSW,248,7.8,7.9,79,0.00,CLR,,0.00,WeatherDisplay:10.37,2013-02-04 07:03:00,
2013-02-04 01:08:00,32.4,26.6,29.71,SW,225,8.1,8.1,79,0.00,CLR,,0.00,WeatherDisplay:10.37,2013-02-04 07:08:00,
2013-02-04 01:13:00,32.4,26.6,29.72,SW,225,7.3,7.8,79,0.00,CLR,,0.00,WeatherDisplay:10.37,2013-02-04 07:13:00,
2013-02-04 01:18:00,32.5,26.7,29.72,WSW,248,5.8,5.8,79,0.00,CLR,,0.00,WeatherDisplay:10.37,2013-02-04 07:18:00,
2013-02-04 01:23:00,32.5,26.7,29.72,WSW,248,2.3,2.9,79,0.00,CLR,,0.00,WeatherDisplay:10.37,2013-02-04 07:23:00,
2013-02-04 01:28:00,32.5,26.7,29.73,West,270,0.0,0.0,79,0.00,CLR,,0.00,WeatherDisplay:10.37,2013-02-04 07:28:00,
2013-02-04 01:33:00,32.7,26.9,29.73,NW,315,0.0,0.0,79,0.00,CLR,,0.00,WeatherDisplay:10.37,2013-02-04 07:33:00,
2013-02-04 01:38:00,32.4,26.6,29.73,NW,315,0.0,0.0,79,0.00,CLR,,0.00,WeatherDisplay:10.37,2013-02-04 07:38:00,
2013-02-04 01:43:00,32.4,26.6,29.73,WNW,292,4.6,4.9,79,0.00,CLR,,0.00,WeatherDisplay:10.37,2013-02-04 07:43:00,
2013-02-04 01:48:00,32.7,26.9,29.73,WNW,292,4.6,4.9,79,0.00,CLR,,0.00,WeatherDisplay:10.37,2013-02-04 07:48:00,
2013-02-04 01:53:00,32.7,26.9,29.74,North,0,0.0,0.0,79,0.00,CLR,,0.00,WeatherDisplay:10.37,2013-02-04 07:53:00,
2013-02-04 01:58:00,32.5,26.4,29.74,North,0,0.0,0.0,78,0.00,CLR,,0.00,WeatherDisplay:10.37,2013-02-04 07:58:00,
2013-02-04 02:03:00,32.5,26.4,29.74,North,0,0.0,0.0,78,0.00,CLR,,0.00,WeatherDisplay:10.37,2013-02-04 08:03:00,
2013-02-04 02:08:00,32.4,26.3,29.74,North,0,0.0,0.0,78,0.00,CLR,,0.00,WeatherDisplay:10.37,2013-02-04 08:08:00,
2013-02-04 02:13:00,32.4,26.3,29.74,NNW,338,0.0,0.0,78,0.00,CLR,,0.00,WeatherDisplay:10.37,2013-02-04 08:13:00,
2013-02-04 02:18:00,32.2,26.4,29.74,WNW,292,0.0,0.0,79,0.00,CLR,,0.00,WeatherDisplay:10.37,2013-02-04 08:18:00,
2013-02-04 02:23:00,32.2,26.4,29.75,WNW,292,4.6,0.0,79,0.00,CLR,,0.00,WeatherDisplay:10.37,2013-02-04 08:23:00,
2013-02-04 02:28:00,32.2,26.4,29.74,WNW,292,5.8,6.1,79,0.00,CLR,,0.00,WeatherDisplay:10.37,2013-02-04 08:28:00,
2013-02-04 02:33:00,32.4,26.6,29.74,WNW,292,4.6,4.6,79,0.00,CLR,,0.00,WeatherDisplay:10.37,2013-02-04 08:33:00,
2013-02-04 02:38:00,32.4,26.6,29.75,WNW,292,4.6,4.6,79,0.00,CLR,,0.00,WeatherDisplay:10.37,2013-02-04 08:38:00,
2013-02-04 02:43:00,32.4,26.6,29.75,WNW,292,2.4,2.4,79,0.00,CLR,,0.00,WeatherDisplay:10.37,2013-02-04 08:43:00,
2013-02-04 02:48:00,32.2,26.4,29.74,WNW,292,5.7,5.7,79,0.00,CLR,,0.00,WeatherDisplay:10.37,2013-02-04 08:48:00,
2013-02-04 02:53:00,32.2,26.4,29.75,WNW,292,2.3,0.0,79,0.00,CLR,,0.00,WeatherDisplay:10.37,2013-02-04 08:53:00,
2013-02-04 02:58:00,32.2,26.4,29.74,WNW,292,0.0,0.0,79,0.00,CLR,,0.00,WeatherDisplay:10.37,2013-02-04 08:58:00,
2013-02-04 03:03:00,32.2,26.4,29.74,WNW,292,0.0,0.0,79,0.00,CLR,,0.00,WeatherDisplay:10.37,2013-02-04 09:03:00,
2013-02-04 03:08:00,32.2,26.4,29.75,WNW,292,0.0,0.0,79,0.00,CLR,,0.00,WeatherDisplay:10.37,2013-02-04 09:08:00,
2013-02-04 03:13:00,31.8,26.0,29.75,NNW,338,0.0,0.0,79,0.00,CLR,,0.00,WeatherDisplay:10.37,2013-02-04 09:13:00,
2013-02-04 03:18:00,31.6,25.9,29.75,NNW,338,1.1,1.3,79,0.00,CLR,,0.00,WeatherDisplay:10.37,2013-02-04 09:18:00,
2013-02-04 03:23:00,31.5,25.7,29.76,NNW,338,3.5,0.0,79,0.00,CLR,,0.00,WeatherDisplay:10.37,2013-02-04 09:23:00,
2013-02-04 03:28:00,31.1,25.7,29.76,NNW,338,0.0,0.0,80,0.00,CLR,,0.00,WeatherDisplay:10.37,2013-02-04 09:28:00,
2013-02-04 03:33:00,31.1,25.7,29.76,NNW,338,0.0,0.0,80,0.00,CLR,,0.00,WeatherDisplay:10.37,2013-02-04 09:33:00,
2013-02-04 03:38:00,30.6,24.8,29.76,NNW,338,0.0,0.0,79,0.00,CLR,,0.00,WeatherDisplay:10.37,2013-02-04 09:38:00,
2013-02-04 03:43:00,30.0,24.6,29.76,NNW,338,0.0,0.5,80,0.00,CLR,,0.00,WeatherDisplay:10.37,2013-02-04 09:43:00,
2013-02-04 03:48:00,29.7,24.2,29.76,NNW,338,6.9,7.6,80,0.00,CLR,,0.00,WeatherDisplay:10.37,2013-02-04 09:48:00,
2013-02-04 03:53:00,29.5,24.1,29.76,NNW,338,8.1,8.1,80,0.00,CLR,,0.00,WeatherDisplay:10.37,2013-02-04 09:53:00,
2013-02-04 03:58:00,28.9,23.5,29.77,NNW,338,6.9,6.9,80,0.00,CLR,,0.00,WeatherDisplay:10.37,2013-02-04 09:58:00,
2013-02-04 04:03:00,28.2,22.8,29.77,North,0,1.1,0.0,80,0.00,CLR,,0.00,WeatherDisplay:10.37,2013-02-04 10:03:00,
2013-02-04 04:08:00,27.3,22.0,29.77,North,0,3.8,4.1,80,0.00,CLR,,0.00,WeatherDisplay:10.37,2013-02-04 10:08:00,
2013-02-04 04:13:00,26.2,20.6,29.78,North,0,8.1,8.1,79,0.00,CLR,,0.00,WeatherDisplay:10.37,2013-02-04 10:13:00,
2013-02-04 04:18:00,25.7,20.1,29.78,North,0,6.2,6.6,79,0.00,CLR,,0.00,WeatherDisplay:10.37,2013-02-04 10:18:00,
2013-02-04 04:23:00,24.6,19.0,29.78,North,0,8.1,8.4,79,0.00,CLR,,0.00,WeatherDisplay:10.37,2013-02-04 10:23:00,
2013-02-04 04:28:00,23.9,18.0,29.78,North,0,6.9,7.1,78,0.00,CLR,,0.00,WeatherDisplay:10.37,2013-02-04 10:28:00,
2013-02-04 04:33:00,23.2,17.3,29.79,North,0,5.8,5.8,78,0.00,CLR,,0.00,WeatherDisplay:10.37,2013-02-04 10:33:00,
2013-02-04 04:38:00,22.8,17.0,29.79,North,0,2.3,2.3,78,0.00,CLR,,0.00,WeatherDisplay:10.37,2013-02-04 10:38:00,
2013-02-04 04:43:00,22.5,16.6,29.79,North,0,3.5,3.5,78,0.00,CLR,,0.00,WeatherDisplay:10.37,2013-02-04 10:43:00,
2013-02-04 04:48:00,22.1,16.3,29.81,North,0,1.1,0.0,78,0.00,CLR,,0.00,WeatherDisplay:10.37,2013-02-04 10:48:00,
2013-02-04 04:53:00,21.7,15.9,29.81,North,0,3.8,4.1,78,0.00,CLR,,0.00,WeatherDisplay:10.37,2013-02-04 10:53:00,
2013-02-04 04:58:00,21.6,15.8,29.81,North,0,1.1,2.0,78,0.00,CLR,,0.00,WeatherDisplay:10.37,2013-02-04 10:58:00,
2013-02-04 05:03:00,21.6,16.1,29.81,North,0,2.3,2.3,79,0.00,CLR,,0.00,WeatherDisplay:10.37,2013-02-04 11:03:00,
2013-02-04 05:08:00,21.6,16.1,29.81,North,0,0.0,0.0,79,0.00,CLR,,0.00,WeatherDisplay:10.37,2013-02-04 11:08:00,
2013-02-04 05:13:00,21.6,16.1,29.81,NNW,338,0.0,0.0,79,0.00,CLR,,0.00,WeatherDisplay:10.37,2013-02-04 11:13:00,
2013-02-04 05:18:00,21.6,16.1,29.82,North,0,0.0,0.0,79,0.00,CLR,,0.00,WeatherDisplay:10.37,2013-02-04 11:18:00,
2013-02-04 05:23:00,21.7,16.5,29.82,North,0,0.0,0.0,80,0.00,CLR,,0.00,WeatherDisplay:10.37,2013-02-04 11:23:00,
2013-02-04 05:28:00,21.7,16.5,29.82,North,0,6.2,6.5,80,0.00,CLR,,0.00,WeatherDisplay:10.37,2013-02-04 11:28:00,
2013-02-04 05:33:00,21.6,16.3,29.82,North,0,2.3,0.0,80,0.00,CLR,,0.00,WeatherDisplay:10.37,2013-02-04 11:33:00,
2013-02-04 05:38:00,21.6,16.3,29.83,North,0,5.1,0.0,80,0.00,CLR,,0.00,WeatherDisplay:10.37,2013-02-04 11:38:00,
2013-02-04 05:43:00,21.4,15.9,29.83,North,0,6.9,6.9,79,0.00,CLR,,0.00,WeatherDisplay:10.37,2013-02-04 11:43:00,
2013-02-04 05:48:00,21.4,16.2,29.83,North,0,5.8,5.8,80,0.00,CLR,,0.00,WeatherDisplay:10.37,2013-02-04 11:48:00,
2013-02-04 05:53:00,21.4,16.2,29.83,NNE,22,6.9,7.2,80,0.00,CLR,,0.00,WeatherDisplay:10.37,2013-02-04 11:53:00,
2013-02-04 05:58:00,21.4,16.2,29.83,North,0,6.9,6.9,80,0.00,CLR,,0.00,WeatherDisplay:10.37,2013-02-04 11:58:00,
2013-02-04 06:03:00,21.4,16.2,29.83,North,0,6.9,6.9,80,0.00,CLR,,0.00,WeatherDisplay:10.37,2013-02-04 12:03:00,
2013-02-04 06:08:00,21.4,16.2,29.84,North,0,6.9,6.9,80,0.00,CLR,,0.00,WeatherDisplay:10.37,2013-02-04 12:08:00,
2013-02-04 06:13:00,21.4,16.2,29.84,North,0,5.8,5.8,80,0.00,CLR,,0.00,WeatherDisplay:10.37,2013-02-04 12:13:00,
2013-02-04 06:18:00,21.4,16.2,29.85,NNE,22,0.0,0.0,80,0.00,CLR,,0.00,WeatherDisplay:10.37,2013-02-04 12:18:00,
2013-02-04 06:23:00,21.4,16.2,29.85,North,0,8.1,8.4,80,0.00,CLR,,0.00,WeatherDisplay:10.37,2013-02-04 12:23:00,
2013-02-04 06:28:00,21.4,16.2,29.86,NNE,22,5.8,6.1,80,0.00,CLR,,0.00,WeatherDisplay:10.37,2013-02-04 12:28:00,
2013-02-04 06:33:00,21.4,16.2,29.86,NNE,22,5.8,5.8,80,0.00,CLR,,0.00,WeatherDisplay:10.37,2013-02-04 12:33:00,
2013-02-04 06:38:00,20.8,15.6,29.86,North,0,6.9,6.9,80,0.00,CLR,,0.00,WeatherDisplay:10.37,2013-02-04 12:38:00,
2013-02-04 06:43:00,20.8,15.6,29.87,North,0,7.3,7.8,80,0.00,CLR,,0.00,WeatherDisplay:10.37,2013-02-04 12:43:00,
2013-02-04 06:48:00,20.7,15.5,29.87,North,0,5.8,5.8,80,0.00,CLR,,0.00,WeatherDisplay:10.37,2013-02-04 12:48:00,
2013-02-04 06:53:00,20.7,15.5,29.87,North,0,8.1,8.1,80,0.00,CLR,,0.00,WeatherDisplay:10.37,2013-02-04 12:53:00,
2013-02-04 06:58:00,20.7,15.5,29.87,North,0,0.0,0.0,80,0.00,CLR,,0.00,WeatherDisplay:10.37,2013-02-04 12:58:00,
2013-02-04 07:03:00,20.7,15.5,29.88,North,0,6.2,6.2,80,0.00,CLR,,0.00,WeatherDisplay:10.37,2013-02-04 13:03:00,
2013-02-04 07:08:00,20.3,15.1,29.88,North,0,8.1,8.1,80,0.00,CLR,,0.00,WeatherDisplay:10.37,2013-02-04 13:08:00,
2013-02-04 07:13:00,20.3,15.1,29.89,North,0,6.9,6.9,80,0.00,CLR,,0.00,WeatherDisplay:10.37,2013-02-04 13:13:00,
2013-02-04 07:18:00,20.3,15.1,29.89,North,0,8.1,8.1,80,0.00,CLR,,0.00,WeatherDisplay:10.37,2013-02-04 13:18:00,
2013-02-04 07:23:00,20.1,14.9,29.89,NNE,22,5.8,5.8,80,0.00,CLR,,0.00,WeatherDisplay:10.37,2013-02-04 13:23:00,
2013-02-04 07:28:00,20.1,14.9,29.89,North,0,3.8,4.1,80,0.00,CLR,,0.00,WeatherDisplay:10.37,2013-02-04 13:28:00,
2013-02-04 07:33:00,19.9,14.8,29.90,North,0,8.1,8.9,80,0.00,CLR,,0.00,WeatherDisplay:10.37,2013-02-04 13:33:00,
2013-02-04 07:38:00,19.8,14.6,29.89,North,0,8.1,8.1,80,0.00,CLR,,0.00,WeatherDisplay:10.37,2013-02-04 13:38:00,
2013-02-04 07:43:00,19.8,14.6,29.90,North,0,8.1,8.7,80,0.00,CLR,,0.00,WeatherDisplay:10.37,2013-02-04 13:43:00,
2013-02-04 07:48:00,19.6,14.4,29.90,North,0,6.9,6.9,80,0.00,CLR,,0.00,WeatherDisplay:10.37,2013-02-04 13:48:00,
2013-02-04 07:53:00,19.6,14.4,29.90,North,0,7.0,7.0,80,0.00,CLR,,0.00,WeatherDisplay:10.37,2013-02-04 13:53:00,
2013-02-04 07:58:00,19.6,14.4,29.90,North,0,9.2,9.3,80,0.00,CLR,,0.00,WeatherDisplay:10.37,2013-02-04 13:58:00,
2013-02-04 08:03:00,19.2,14.1,29.91,North,0,8.1,8.1,80,0.00,CLR,,0.00,WeatherDisplay:10.37,2013-02-04 14:03:00,
2013-02-04 08:08:00,19.0,13.6,29.91,NNE,22,8.1,8.4,79,0.00,CLR,,0.00,WeatherDisplay:10.37,2013-02-04 14:08:00,
2013-02-04 08:13:00,19.0,13.6,29.92,North,0,7.3,7.8,79,0.00,CLR,,0.00,WeatherDisplay:10.37,2013-02-04 14:13:00,
2013-02-04 08:18:00,18.9,13.4,29.92,North,0,4.6,4.6,79,0.00,CLR,,0.00,WeatherDisplay:10.37,2013-02-04 14:18:00,
2013-02-04 08:23:00,18.9,13.4,29.92,North,0,5.8,5.8,79,0.00,CLR,,0.00,WeatherDisplay:10.37,2013-02-04 14:23:00,
2013-02-04 08:28:00,18.7,13.2,29.92,North,0,9.2,9.8,79,0.00,CLR,,0.00,WeatherDisplay:10.37,2013-02-04 14:28:00,
2013-02-04 08:33:00,18.3,12.9,29.92,North,0,8.1,8.1,79,0.00,CLR,,0.00,WeatherDisplay:10.37,2013-02-04 14:33:00,
2013-02-04 08:38:00,18.1,12.7,29.92,North,0,8.4,9.0,79,0.00,CLR,,0.00,WeatherDisplay:10.37,2013-02-04 14:38:00,
2013-02-04 08:43:00,18.0,12.5,29.92,NNE,22,5.9,6.4,79,0.00,CLR,,0.00,WeatherDisplay:10.37,2013-02-04 14:43:00,
2013-02-04 08:48:00,17.8,12.4,29.92,NNE,22,8.4,8.4,79,0.00,CLR,,0.00,WeatherDisplay:10.37,2013-02-04 14:48:00,
2013-02-04 08:53:00,17.8,12.1,29.93,North,0,8.1,8.1,78,0.00,CLR,,0.00,WeatherDisplay:10.37,2013-02-04 14:53:00,
2013-02-04 08:58:00,17.8,12.1,29.93,NNE,22,6.9,7.2,78,0.00,CLR,,0.00,WeatherDisplay:10.37,2013-02-04 14:58:00,
2013-02-04 09:03:00,17.8,12.1,29.94,NNE,22,6.9,6.9,78,0.00,CLR,,0.00,WeatherDisplay:10.37,2013-02-04 15:03:00,
2013-02-04 09:08:00,17.8,12.1,29.94,North,0,6.9,7.2,78,0.00,CLR,,0.00,WeatherDisplay:10.37,2013-02-04 15:08:00,
2013-02-04 09:13:00,17.8,12.1,29.94,North,0,5.8,6.1,78,0.00,CLR,,0.00,WeatherDisplay:10.37,2013-02-04 15:13:00,
2013-02-04 09:18:00,18.0,12.3,29.94,North,0,5.9,6.4,78,0.00,CLR,,0.00,WeatherDisplay:10.37,2013-02-04 15:18:00,
2013-02-04 09:23:00,18.0,12.3,29.94,North,0,6.2,6.7,78,0.00,CLR,,0.00,WeatherDisplay:10.37,2013-02-04 15:23:00,
2013-02-04 09:28:00,18.1,12.4,29.94,NNE,22,6.9,7.8,78,0.00,CLR,,0.00,WeatherDisplay:10.37,2013-02-04 15:28:00,
2013-02-04 09:33:00,18.1,12.4,29.95,North,0,8.1,8.1,78,0.00,CLR,,0.00,WeatherDisplay:10.37,2013-02-04 15:33:00,
2013-02-04 09:38:00,18.1,12.4,29.95,NNE,22,7.0,7.5,78,0.00,CLR,,0.00,WeatherDisplay:10.37,2013-02-04 15:38:00,
2013-02-04 09:43:00,18.3,12.3,29.95,North,0,7.3,7.8,77,0.00,CLR,,0.00,WeatherDisplay:10.37,2013-02-04 15:43:00,
2013-02-04 09:48:00,18.5,12.5,29.95,North,0,6.9,7.4,77,0.00,CLR,,0.00,WeatherDisplay:10.37,2013-02-04 15:48:00,
2013-02-04 09:53:00,18.5,12.5,29.96,North,0,7.0,7.5,77,0.00,CLR,,0.00,WeatherDisplay:10.37,2013-02-04 15:53:00,
2013-02-04 09:58:00,18.9,12.8,29.96,North,0,6.9,7.2,77,0.00,CLR,,0.00,WeatherDisplay:10.37,2013-02-04 15:58:00,
2013-02-04 10:03:00,19.0,13.0,29.97,North,0,8.1,8.1,77,0.00,CLR,,0.00,WeatherDisplay:10.37,2013-02-04 16:03:00,
2013-02-04 10:08:00,19.0,12.7,29.97,NNW,338,6.9,6.9,76,0.00,CLR,,0.00,WeatherDisplay:10.37,2013-02-04 16:08:00,
2013-02-04 10:13:00,19.9,13.9,29.97,North,0,8.1,8.1,77,0.00,CLR,,0.00,WeatherDisplay:10.37,2013-02-04 16:13:00,
2013-02-04 10:18:00,20.3,14.2,29.97,North,0,6.9,6.9,77,0.00,CLR,,0.00,WeatherDisplay:10.37,2013-02-04 16:18:00,
2013-02-04 10:23:00,21.6,15.5,29.99,North,0,8.1,8.4,77,0.00,CLR,,0.00,WeatherDisplay:10.37,2013-02-04 16:23:00,
2013-02-04 10:28:00,22.1,15.7,29.99,North,0,6.9,6.9,76,0.00,CLR,,0.00,WeatherDisplay:10.37,2013-02-04 16:28:00,
2013-02-04 10:33:00,22.1,15.4,29.99,NNE,22,6.9,7.2,75,0.00,CLR,,0.00,WeatherDisplay:10.37,2013-02-04 16:33:00,
2013-02-04 10:38:00,22.1,15.1,29.99,North,0,5.8,6.1,74,0.00,CLR,,0.00,WeatherDisplay:10.37,2013-02-04 16:38:00,
2013-02-04 10:43:00,22.5,15.4,29.99,North,0,6.9,6.9,74,0.00,CLR,,0.00,WeatherDisplay:10.37,2013-02-04 16:43:00,
2013-02-04 10:48:00,22.6,15.6,29.99,NNE,22,6.9,7.3,74,0.00,CLR,,0.00,WeatherDisplay:10.37,2013-02-04 16:48:00,
2013-02-04 10:53:00,23.2,16.1,29.99,North,0,0.0,0.6,74,0.00,CLR,,0.00,WeatherDisplay:10.37,2013-02-04 16:53:00,
2013-02-04 10:58:00,23.9,16.8,29.99,NNE,22,8.1,8.1,74,0.00,CLR,,0.00,WeatherDisplay:10.37,2013-02-04 16:58:00,
2013-02-04 11:03:00,23.9,16.2,30.00,North,0,7.3,7.7,72,0.00,CLR,,0.00,WeatherDisplay:10.37,2013-02-04 17:03:00,
2013-02-04 11:08:00,23.9,16.2,30.00,NNE,22,8.1,8.1,72,0.00,CLR,,0.00,WeatherDisplay:10.37,2013-02-04 17:08:00,
2013-02-04 11:13:00,24.4,16.7,30.00,North,0,5.1,5.1,72,0.00,CLR,,0.00,WeatherDisplay:10.37,2013-02-04 17:13:00,
2013-02-04 11:18:00,24.8,17.1,29.99,North,0,5.1,5.5,72,0.00,CLR,,0.00,WeatherDisplay:10.37,2013-02-04 17:18:00,
2013-02-04 11:23:00,25.0,16.9,29.99,NNE,22,7.3,7.8,71,0.00,CLR,,0.00,WeatherDisplay:10.37,2013-02-04 17:23:00,
2013-02-04 11:28:00,25.0,16.6,29.99,North,0,2.3,2.6,70,0.00,CLR,,0.00,WeatherDisplay:10.37,2013-02-04 17:28:00,
2013-02-04 11:33:00,25.0,16.6,29.99,NNE,22,6.9,7.2,70,0.00,CLR,,0.00,WeatherDisplay:10.37,2013-02-04 17:33:00,
2013-02-04 11:38:00,25.0,16.6,29.99,North,0,7.3,7.8,70,0.00,CLR,,0.00,WeatherDisplay:10.37,2013-02-04 17:38:00,
2013-02-04 11:43:00,25.0,16.6,29.99,North,0,5.9,6.4,70,0.00,CLR,,0.00,WeatherDisplay:10.37,2013-02-04 17:43:00,
2013-02-04 11:48:00,25.0,16.6,29.97,NNE,22,7.0,7.4,70,0.00,CLR,,0.00,WeatherDisplay:10.37,2013-02-04 17:48:00,
2013-02-04 11:53:00,25.0,16.6,29.97,NNE,22,5.8,6.1,70,0.00,CLR,,0.00,WeatherDisplay:10.37,2013-02-04 17:53:00,
2013-02-04 11:58:00,25.0,16.6,29.97,NNE,22,5.8,5.8,70,0.00,CLR,,0.00,WeatherDisplay:10.37,2013-02-04 17:58:00,
2013-02-04 12:03:00,25.0,16.6,29.96,NNE,22,3.5,3.5,70,0.00,CLR,,0.00,WeatherDisplay:10.37,2013-02-04 18:03:00,
2013-02-04 12:08:00,25.0,16.6,29.95,NNE,22,4.6,5.5,70,0.00,CLR,,0.00,WeatherDisplay:10.37,2013-02-04 18:08:00,
2013-02-04 12:13:00,25.0,16.6,29.95,NNE,22,5.8,5.8,70,0.00,CLR,,0.00,WeatherDisplay:10.37,2013-02-04 18:13:00,
2013-02-04 12:18:00,25.0,16.6,29.96,NNE,22,6.9,6.9,70,0.00,CLR,,0.00,WeatherDisplay:10.37,2013-02-04 18:18:00,
2013-02-04 12:23:00,25.2,16.7,29.96,NNE,22,5.4,5.4,70,0.00,CLR,,0.00,WeatherDisplay:10.37,2013-02-04 18:23:00,
2013-02-04 12:28:00,25.2,16.7,29.96,NNE,22,3.5,3.5,70,0.00,CLR,,0.00,WeatherDisplay:10.37,2013-02-04 18:28:00,
2013-02-04 12:33:00,25.5,17.1,29.95,NNE,22,0.0,0.0,70,0.00,CLR,,0.00,WeatherDisplay:10.37,2013-02-04 18:33:00,
2013-02-04 12:38:00,25.5,17.1,29.95,NE,45,3.5,3.5,70,0.00,CLR,,0.00,WeatherDisplay:10.37,2013-02-04 18:38:00,
2013-02-04 12:43:00,25.2,16.4,29.95,NNE,22,3.5,3.5,69,0.00,CLR,,0.00,WeatherDisplay:10.37,2013-02-04 18:43:00,
2013-02-04 12:48:00,25.2,16.4,29.95,NNE,22,1.6,1.7,69,0.00,CLR,,0.00,WeatherDisplay:10.37,2013-02-04 18:48:00,
2013-02-04 12:53:00,25.9,17.4,29.95,NE,45,0.0,0.0,70,0.00,CLR,,0.00,WeatherDisplay:10.37,2013-02-04 18:53:00,
2013-02-04 12:58:00,26.2,17.8,29.95,NNE,22,3.8,3.8,70,0.00,CLR,,0.00,WeatherDisplay:10.37,2013-02-04 18:58:00,
2013-02-04 13:03:00,26.1,17.3,29.95,NNE,22,4.6,4.9,69,0.00,CLR,,0.00,WeatherDisplay:10.37,2013-02-04 19:03:00,
2013-02-04 13:08:00,26.2,17.4,29.95,NNE,22,0.0,0.0,69,0.00,CLR,,0.00,WeatherDisplay:10.37,2013-02-04 19:08:00,
2013-02-04 13:13:00,25.7,16.9,29.95,NE,45,0.0,0.0,69,0.00,CLR,,0.00,WeatherDisplay:10.37,2013-02-04 19:13:00,
2013-02-04 13:18:00,26.1,17.3,29.95,NNE,22,0.0,0.0,69,0.00,CLR,,0.00,WeatherDisplay:10.37,2013-02-04 19:18:00,
2013-02-04 13:23:00,27.0,18.1,29.95,NNE,22,0.0,0.0,69,0.00,CLR,,0.00,WeatherDisplay:10.37,2013-02-04 19:23:00,
2013-02-04 13:28:00,27.3,18.5,29.95,NNE,22,0.0,0.0,69,0.00,CLR,,0.00,WeatherDisplay:10.37,2013-02-04 19:28:00,
2013-02-04 13:33:00,27.7,18.8,29.96,North,0,0.0,0.0,69,0.00,CLR,,0.00,WeatherDisplay:10.37,2013-02-04 19:33:00,
2013-02-04 13:38:00,28.0,19.2,29.95,North,0,0.0,0.0,69,0.00,CLR,,0.00,WeatherDisplay:10.37,2013-02-04 19:38:00,
2013-02-04 13:43:00,28.4,19.2,29.96,North,0,0.0,0.0,68,0.00,CLR,,0.00,WeatherDisplay:10.37,2013-02-04 19:43:00,
2013-02-04 13:48:00,28.6,19.4,29.96,North,0,0.0,0.0,68,0.00,CLR,,0.00,WeatherDisplay:10.37,2013-02-04 19:48:00,
2013-02-04 13:53:00,28.6,19.0,29.97,NNW,338,0.0,0.0,67,0.00,CLR,,0.00,WeatherDisplay:10.37,2013-02-04 19:53:00,
2013-02-04 13:58:00,28.6,19.0,29.96,NNW,338,0.0,0.0,67,0.00,CLR,,0.00,WeatherDisplay:10.37,2013-02-04 19:58:00,
2013-02-04 14:03:00,28.6,19.0,29.96,NNW,338,0.0,0.0,67,0.00,CLR,,0.00,WeatherDisplay:10.37,2013-02-04 20:03:00,
2013-02-04 14:08:00,29.3,19.7,29.96,NNW,338,0.0,0.0,67,0.00,CLR,,0.00,WeatherDisplay:10.37,2013-02-04 20:08:00,
2013-02-04 14:13:00,29.8,19.9,29.96,NNW,338,0.0,0.0,66,0.00,CLR,,0.00,WeatherDisplay:10.37,2013-02-04 20:13:00,
2013-02-04 14:18:00,30.4,20.4,29.96,North,0,0.0,0.0,66,0.00,CLR,,0.00,WeatherDisplay:10.37,2013-02-04 20:18:00,
2013-02-04 14:23:00,30.0,19.7,29.96,NNW,338,0.0,0.0,65,0.00,CLR,,0.00,WeatherDisplay:10.37,2013-02-04 20:23:00,
2013-02-04 14:28:00,30.4,20.0,29.96,NNW,338,0.0,0.0,65,0.00,CLR,,0.00,WeatherDisplay:10.37,2013-02-04 20:28:00,
2013-02-04 14:33:00,30.4,19.6,29.96,NNW,338,0.0,0.0,64,0.00,CLR,,0.00,WeatherDisplay:10.37,2013-02-04 20:33:00,
2013-02-04 14:38:00,30.6,19.8,29.96,North,0,0.0,0.0,64,0.00,CLR,,0.00,WeatherDisplay:10.37,2013-02-04 20:38:00,
2013-02-04 14:43:00,30.4,19.6,29.95,NNE,22,0.0,0.0,64,0.00,CLR,,0.00,WeatherDisplay:10.37,2013-02-04 20:43:00,
2013-02-04 14:48:00,29.8,19.1,29.95,NNW,338,1.1,1.1,64,0.00,CLR,,0.00,WeatherDisplay:10.37,2013-02-04 20:48:00,
2013-02-04 14:53:00,29.7,19.0,29.96,NNW,338,0.0,0.0,64,0.00,CLR,,0.00,WeatherDisplay:10.37,2013-02-04 20:53:00,
2013-02-04 14:58:00,29.8,19.1,29.97,NNW,338,0.0,0.0,64,0.00,CLR,,0.00,WeatherDisplay:10.37,2013-02-04 20:58:00,
2013-02-04 15:03:00,29.3,18.6,29.97,NNW,338,0.0,0.0,64,0.00,CLR,,0.00,WeatherDisplay:10.37,2013-02-04 21:03:00,
2013-02-04 15:08:00,28.6,17.6,29.97,North,0,0.0,0.0,63,0.00,CLR,,0.00,WeatherDisplay:10.37,2013-02-04 21:08:00,
2013-02-04 15:13:00,28.0,17.1,29.97,NNW,338,0.0,0.0,63,0.00,CLR,,0.00,WeatherDisplay:10.37,2013-02-04 21:13:00,
2013-02-04 15:18:00,27.7,17.1,29.97,North,0,0.0,0.0,64,0.00,CLR,,0.00,WeatherDisplay:10.37,2013-02-04 21:18:00,
2013-02-04 15:23:00,27.3,16.7,29.97,North,0,0.0,0.0,64,0.00,CLR,,0.00,WeatherDisplay:10.37,2013-02-04 21:23:00,
2013-02-04 15:28:00,27.1,16.6,29.96,North,0,0.0,0.0,64,0.00,CLR,,0.00,WeatherDisplay:10.37,2013-02-04 21:28:00,
2013-02-04 15:33:00,27.0,16.4,29.96,North,0,0.0,0.0,64,0.00,CLR,,0.00,WeatherDisplay:10.37,2013-02-04 21:33:00,
2013-02-04 15:38:00,26.8,16.2,29.96,North,0,0.0,0.0,64,0.00,CLR,,0.00,WeatherDisplay:10.37,2013-02-04 21:38:00,
2013-02-04 15:43:00,27.0,16.4,29.95,North,0,0.0,0.0,64,0.00,CLR,,0.00,WeatherDisplay:10.37,2013-02-04 21:43:00,
2013-02-04 15:48:00,27.0,16.4,29.95,NNW,338,0.0,0.0,64,0.00,CLR,,0.00,WeatherDisplay:10.37,2013-02-04 21:48:00,
2013-02-04 15:53:00,26.8,16.2,29.95,NNW,338,0.0,0.0,64,0.00,CLR,,0.00,WeatherDisplay:10.37,2013-02-04 21:53:00,
2013-02-04 15:58:00,26.4,15.9,29.95,NNW,338,0.0,0.0,64,0.00,CLR,,0.00,WeatherDisplay:10.37,2013-02-04 21:58:00,
2013-02-04 16:03:00,26.4,15.9,29.95,NNW,338,0.0,0.0,64,0.00,CLR,,0.00,WeatherDisplay:10.37,2013-02-04 22:03:00,
2013-02-04 16:08:00,26.8,16.2,29.95,NNW,338,0.0,0.0,64,0.00,CLR,,0.00,WeatherDisplay:10.37,2013-02-04 22:08:00,
2013-02-04 16:13:00,26.8,16.2,29.94,NNW,338,0.0,0.0,64,0.00,CLR,,0.00,WeatherDisplay:10.37,2013-02-04 22:13:00,
2013-02-04 16:18:00,26.8,16.2,29.95,NNW,338,0.0,0.0,64,0.00,CLR,,0.00,WeatherDisplay:10.37,2013-02-04 22:18:00,
2013-02-04 16:23:00,27.0,16.4,29.95,NNW,338,0.0,0.0,64,0.00,CLR,,0.00,WeatherDisplay:10.37,2013-02-04 22:23:00,
2013-02-04 16:28:00,27.1,16.6,29.95,NNW,338,0.0,0.0,64,0.00,CLR,,0.00,WeatherDisplay:10.37,2013-02-04 22:28:00,
2013-02-04 16:33:00,26.8,16.2,29.95,NNW,338,0.0,0.0,64,0.00,CLR,,0.00,WeatherDisplay:10.37,2013-02-04 22:33:00,
2013-02-04 16:38:00,26.6,16.1,29.95,NNW,338,0.0,0.0,64,0.00,CLR,,0.00,WeatherDisplay:10.37,2013-02-04 22:38:00,
2013-02-04 16:43:00,26.4,15.9,29.94,NNW,338,0.0,0.0,64,0.00,CLR,,0.00,WeatherDisplay:10.37,2013-02-04 22:43:00,
2013-02-04 16:48:00,26.2,15.7,29.94,NNW,338,0.0,0.0,64,0.00,CLR,,0.00,WeatherDisplay:10.37,2013-02-04 22:48:00,
2013-02-04 16:53:00,26.2,15.7,29.94,NNW,338,0.0,0.0,64,0.00,CLR,,0.00,WeatherDisplay:10.37,2013-02-04 22:53:00,
2013-02-04 16:58:00,26.1,15.5,29.94,NNW,338,0.0,0.0,64,0.00,CLR,,0.00,WeatherDisplay:10.37,2013-02-04 22:58:00,
2013-02-04 17:03:00,25.5,15.0,29.94,NNW,338,0.0,0.0,64,0.00,CLR,,0.00,WeatherDisplay:10.37,2013-02-04 23:03:00,
2013-02-04 17:08:00,25.2,14.7,29.94,NNW,338,0.0,0.0,64,0.00,CLR,,0.00,WeatherDisplay:10.37,2013-02-04 23:08:00,
2013-02-04 17:13:00,24.6,14.2,29.94,NNW,338,0.0,0.0,64,0.00,CLR,,0.00,WeatherDisplay:10.37,2013-02-04 23:13:00,
2013-02-04 17:18:00,24.1,13.7,29.94,NNW,338,0.0,0.0,64,0.00,CLR,,0.00,WeatherDisplay:10.37,2013-02-04 23:18:00,
2013-02-04 17:23:00,23.9,13.5,29.93,NNW,338,0.0,0.0,64,0.00,CLR,,0.00,WeatherDisplay:10.37,2013-02-04 23:23:00,
2013-02-04 17:28:00,23.9,13.5,29.93,NNW,338,0.0,0.0,64,0.00,CLR,,0.00,WeatherDisplay:10.37,2013-02-04 23:28:00,
2013-02-04 17:33:00,23.7,13.3,29.94,NNW,338,0.0,0.0,64,0.00,CLR,,0.00,WeatherDisplay:10.37,2013-02-04 23:33:00,
2013-02-04 17:38:00,23.2,12.8,29.94,NNW,338,0.0,0.0,64,0.00,CLR,,0.00,WeatherDisplay:10.37,2013-02-04 23:38:00,
2013-02-04 17:43:00,23.0,13.0,29.94,NNW,338,0.0,0.0,65,0.00,CLR,,0.00,WeatherDisplay:10.37,2013-02-04 23:43:00,
2013-02-04 17:48:00,22.5,12.5,29.94,NNW,338,0.0,0.0,65,0.00,CLR,,0.00,WeatherDisplay:10.37,2013-02-04 23:48:00,
2013-02-04 17:53:00,22.3,12.3,29.94,NNW,338,0.0,0.0,65,0.00,CLR,,0.00,WeatherDisplay:10.37,2013-02-04 23:53:00,
2013-02-04 17:58:00,21.9,11.9,29.94,NNW,338,0.0,0.0,65,0.00,CLR,,0.00,WeatherDisplay:10.37,2013-02-04 23:58:00,
2013-02-04 18:03:00,21.9,12.3,29.94,NNW,338,0.0,0.0,66,0.00,CLR,,0.00,WeatherDisplay:10.37,2013-02-05 00:03:00,
2013-02-04 18:08:00,21.6,11.9,29.93,NNW,338,0.0,0.0,66,0.00,CLR,,0.00,WeatherDisplay:10.37,2013-02-05 00:08:00,
2013-02-04 18:13:00,21.6,11.9,29.93,NNW,338,0.0,0.0,66,0.00,CLR,,0.00,WeatherDisplay:10.37,2013-02-05 00:13:00,
2013-02-04 18:18:00,21.2,11.9,29.93,NNE,22,0.0,0.0,67,0.00,CLR,,0.00,WeatherDisplay:10.37,2013-02-05 00:18:00,
2013-02-04 18:23:00,20.8,11.6,29.92,East,90,0.0,0.0,67,0.00,CLR,,0.00,WeatherDisplay:10.37,2013-02-05 00:23:00,
2013-02-04 18:28:00,20.3,11.4,29.92,SE,135,0.0,0.0,68,0.00,CLR,,0.00,WeatherDisplay:10.37,2013-02-05 00:28:00,
2013-02-04 18:33:00,20.1,11.2,29.92,SE,135,0.0,0.0,68,0.00,CLR,,0.00,WeatherDisplay:10.37,2013-02-05 00:33:00,
2013-02-04 18:38:00,19.9,11.4,29.92,SE,135,0.0,0.0,69,0.00,CLR,,0.00,WeatherDisplay:10.37,2013-02-05 00:38:00,
2013-02-04 18:43:00,19.9,11.4,29.92,SE,135,0.0,0.0,69,0.00,CLR,,0.00,WeatherDisplay:10.37,2013-02-05 00:43:00,
2013-02-04 18:48:00,19.9,11.7,29.92,SE,135,0.0,0.0,70,0.00,CLR,,0.00,WeatherDisplay:10.37,2013-02-05 00:48:00,
2013-02-04 18:53:00,19.9,11.7,29.93,SE,135,0.0,0.0,70,0.00,CLR,,0.00,WeatherDisplay:10.37,2013-02-05 00:53:00,
2013-02-04 18:58:00,19.8,11.9,29.92,SE,135,0.0,0.0,71,0.00,CLR,,0.00,WeatherDisplay:10.37,2013-02-05 00:58:00,
2013-02-04 19:03:00,19.8,11.9,29.92,SE,135,0.0,0.0,71,0.00,CLR,,0.00,WeatherDisplay:10.37,2013-02-05 01:03:00,
2013-02-04 19:08:00,19.6,11.7,29.92,SE,135,0.0,0.0,71,0.00,CLR,,0.00,WeatherDisplay:10.37,2013-02-05 01:08:00,
2013-02-04 19:13:00,19.2,11.7,29.92,SE,135,0.0,0.0,72,0.00,CLR,,0.00,WeatherDisplay:10.37,2013-02-05 01:13:00,
2013-02-04 19:18:00,19.0,11.5,29.92,SE,135,0.0,0.0,72,0.00,CLR,,0.00,WeatherDisplay:10.37,2013-02-05 01:18:00,
2013-02-04 19:23:00,18.9,11.3,29.92,SE,135,0.0,0.0,72,0.00,CLR,,0.00,WeatherDisplay:10.37,2013-02-05 01:23:00,
2013-02-04 19:28:00,18.5,11.0,29.91,SE,135,0.0,0.0,72,0.00,CLR,,0.00,WeatherDisplay:10.37,2013-02-05 01:28:00,
2013-02-04 19:33:00,18.5,11.0,29.91,SE,135,0.0,0.0,72,0.00,CLR,,0.00,WeatherDisplay:10.37,2013-02-05 01:33:00,
2013-02-04 19:38:00,18.3,10.8,29.91,SE,135,0.0,0.0,72,0.00,CLR,,0.00,WeatherDisplay:10.37,2013-02-05 01:38:00,
2013-02-04 19:43:00,18.1,10.6,29.91,SE,135,0.0,0.0,72,0.00,CLR,,0.00,WeatherDisplay:10.37,2013-02-05 01:43:00,
2013-02-04 19:48:00,18.0,10.8,29.91,SE,135,0.0,0.0,73,0.00,CLR,,0.00,WeatherDisplay:10.37,2013-02-05 01:48:00,
2013-02-04 19:53:00,17.8,10.6,29.91,SE,135,0.0,0.0,73,0.00,CLR,,0.00,WeatherDisplay:10.37,2013-02-05 01:53:00,
2013-02-04 19:58:00,17.8,10.9,29.91,SE,135,0.0,0.0,74,0.00,CLR,,0.00,WeatherDisplay:10.37,2013-02-05 01:58:00,
2013-02-04 20:04:00,17.8,10.9,29.91,SE,135,0.0,0.0,74,0.00,CLR,,0.00,WeatherDisplay:10.37,2013-02-05 02:04:00,
2013-02-04 20:09:00,17.8,10.9,29.90,SE,135,0.0,0.0,74,0.00,CLR,,0.00,WeatherDisplay:10.37,2013-02-05 02:09:00,
2013-02-04 20:14:00,17.4,10.8,29.90,SSE,158,0.0,0.0,75,0.00,CLR,,0.00,WeatherDisplay:10.37,2013-02-05 02:14:00,
2013-02-04 20:19:00,17.2,10.7,29.90,SSE,158,0.0,0.0,75,0.00,CLR,,0.00,WeatherDisplay:10.37,2013-02-05 02:19:00,
2013-02-04 20:24:00,17.2,10.7,29.89,SSE,158,0.0,0.0,75,0.00,CLR,,0.00,WeatherDisplay:10.37,2013-02-05 02:24:00,
2013-02-04 20:29:00,17.1,10.5,29.89,SSE,158,0.0,0.0,75,0.00,CLR,,0.00,WeatherDisplay:10.37,2013-02-05 02:29:00,
2013-02-04 20:34:00,17.1,10.5,29.89,SSE,158,1.1,1.2,75,0.00,CLR,,0.00,WeatherDisplay:10.37,2013-02-05 02:34:00,
2013-02-04 20:39:00,17.2,11.0,29.89,SSE,158,0.0,0.0,76,0.00,CLR,,0.00,WeatherDisplay:10.37,2013-02-05 02:39:00,
2013-02-04 20:44:00,17.4,11.1,29.89,South,180,0.0,0.0,76,0.00,CLR,,0.00,WeatherDisplay:10.37,2013-02-05 02:44:00,
2013-02-04 20:49:00,17.8,11.8,29.90,SSW,202,4.6,4.6,77,0.00,CLR,,0.00,WeatherDisplay:10.37,2013-02-05 02:49:00,
2013-02-04 20:54:00,18.1,12.4,29.90,SSW,202,4.6,4.7,78,0.00,CLR,,0.00,WeatherDisplay:10.37,2013-02-05 02:54:00,
2013-02-04 20:59:00,18.3,12.6,29.91,SW,225,0.0,0.0,78,0.00,CLR,,0.00,WeatherDisplay:10.37,2013-02-05 02:59:00,
2013-02-04 21:04:00,18.5,12.8,29.91,SSW,202,2.4,2.6,78,0.00,CLR,,0.00,WeatherDisplay:10.37,2013-02-05 03:04:00,
2013-02-04 21:09:00,18.9,13.1,29.90,SW,225,1.1,1.1,78,0.00,CLR,,0.00,WeatherDisplay:10.37,2013-02-05 03:09:00,
2013-02-04 21:14:00,19.0,13.3,29.90,SW,225,3.5,3.5,78,0.00,CLR,,0.00,WeatherDisplay:10.37,2013-02-05 03:14:00,
2013-02-04 21:19:00,19.0,13.3,29.90,SW,225,4.6,4.6,78,0.00,CLR,,0.00,WeatherDisplay:10.37,2013-02-05 03:19:00,
2013-02-04 21:24:00,19.0,13.3,29.90,SSW,202,7.3,7.8,78,0.00,CLR,,0.00,WeatherDisplay:10.37,2013-02-05 03:24:00,
2013-02-04 21:29:00,19.2,13.8,29.90,SW,225,8.1,8.1,79,0.00,CLR,,0.00,WeatherDisplay:10.37,2013-02-05 03:29:00,
2013-02-04 21:34:00,19.6,14.1,29.90,SSW,202,7.0,7.5,79,0.00,CLR,,0.00,WeatherDisplay:10.37,2013-02-05 03:34:00,
2013-02-04 21:39:00,19.6,14.1,29.91,SW,225,8.1,8.1,79,0.00,CLR,,0.00,WeatherDisplay:10.37,2013-02-05 03:39:00,
2013-02-04 21:44:00,19.8,14.3,29.91,SSW,202,6.2,6.7,79,0.00,CLR,,0.00,WeatherDisplay:10.37,2013-02-05 03:44:00,
2013-02-04 21:49:00,19.9,14.5,29.91,SW,225,4.6,5.2,79,0.00,CLR,,0.00,WeatherDisplay:10.37,2013-02-05 03:49:00,
2013-02-04 21:54:00,20.1,14.7,29.91,SW,225,6.2,6.2,79,0.00,CLR,,0.00,WeatherDisplay:10.37,2013-02-05 03:54:00,
2013-02-04 21:59:00,20.1,14.7,29.90,SW,225,4.6,4.9,79,0.00,CLR,,0.00,WeatherDisplay:10.37,2013-02-05 03:59:00,
2013-02-04 22:04:00,20.1,14.7,29.91,SW,225,7.0,7.5,79,0.00,CLR,,0.00,WeatherDisplay:10.37,2013-02-05 04:04:00,
2013-02-04 22:09:00,20.3,14.8,29.90,SW,225,8.1,8.1,79,0.00,CLR,,0.00,WeatherDisplay:10.37,2013-02-05 04:09:00,
2013-02-04 22:14:00,20.1,14.7,29.90,SSW,202,7.3,7.8,79,0.00,CLR,,0.00,WeatherDisplay:10.37,2013-02-05 04:14:00,
2013-02-04 22:19:00,20.3,14.8,29.89,SSW,202,6.9,7.5,79,0.00,CLR,,0.00,WeatherDisplay:10.37,2013-02-05 04:19:00,
2013-02-04 22:24:00,20.3,14.8,29.89,SSW,202,8.1,8.1,79,0.00,CLR,,0.00,WeatherDisplay:10.37,2013-02-05 04:24:00,
2013-02-04 22:29:00,20.3,14.8,29.89,SSW,202,6.9,6.9,79,0.00,CLR,,0.00,WeatherDisplay:10.37,2013-02-05 04:29:00,
2013-02-04 22:34:00,20.3,14.8,29.89,SSW,202,7.6,7.6,79,0.00,CLR,,0.00,WeatherDisplay:10.37,2013-02-05 04:34:00,
2013-02-04 22:39:00,20.5,15.0,29.89,SW,225,8.1,8.1,79,0.00,CLR,,0.00,WeatherDisplay:10.37,2013-02-05 04:39:00,
2013-02-04 22:44:00,20.7,15.2,29.88,SSW,202,8.1,8.4,79,0.00,CLR,,0.00,WeatherDisplay:10.37,2013-02-05 04:44:00,
2013-02-04 22:49:00,20.5,15.0,29.88,SSW,202,8.1,8.3,79,0.00,CLR,,0.00,WeatherDisplay:10.37,2013-02-05 04:49:00,
2013-02-04 22:54:00,20.7,15.2,29.87,South,180,8.1,8.1,79,0.00,CLR,,0.00,WeatherDisplay:10.37,2013-02-05 04:54:00,
2013-02-04 22:59:00,20.7,15.2,29.88,SSW,202,7.0,7.5,79,0.00,CLR,,0.00,WeatherDisplay:10.37,2013-02-05 04:59:00,
2013-02-04 23:00:00,20.7,15.2,29.87,South,180,6.9,7.3,79,0.00,CLR,,0.00,WeatherDisplay:10.37,2013-02-05 05:00:00,
2013-02-04 23:05:00,20.7,15.2,29.87,South,180,8.1,8.1,79,0.00,CLR,,0.00,WeatherDisplay:10.37,2013-02-05 05:05:00,
2013-02-04 23:10:00,20.8,15.4,29.87,South,180,6.9,7.8,79,0.00,CLR,,0.00,WeatherDisplay:10.37,2013-02-05 05:10:00,
2013-02-04 23:15:00,20.8,15.6,29.88,South,180,6.9,6.9,80,0.00,CLR,,0.00,WeatherDisplay:10.37,2013-02-05 05:15:00,
2013-02-04 23:20:00,21.0,15.8,29.87,SSW,202,4.9,5.2,80,0.00,CLR,,0.00,WeatherDisplay:10.37,2013-02-05 05:20:00,
2013-02-04 23:25:00,21.0,15.8,29.86,SSE,158,7.3,7.8,80,0.00,CLR,,0.00,WeatherDisplay:10.37,2013-02-05 05:25:00,
2013-02-04 23:30:00,21.0,15.8,29.87,South,180,7.0,7.6,80,0.00,CLR,,0.00,WeatherDisplay:10.37,2013-02-05 05:30:00,
2013-02-04 23:35:00,21.0,15.8,29.85,South,180,8.1,8.4,80,0.00,CLR,,0.00,WeatherDisplay:10.37,2013-02-05 05:35:00,
2013-02-04 23:40:00,21.0,15.8,29.85,South,180,5.8,5.8,80,0.00,CLR,,0.00,WeatherDisplay:10.37,2013-02-05 05:40:00,
2013-02-04 23:45:00,21.0,15.8,29.85,South,180,8.1,8.7,80,0.00,CLR,,0.00,WeatherDisplay:10.37,2013-02-05 05:45:00,
2013-02-04 23:50:00,21.2,16.0,29.86,SSW,202,8.1,8.1,80,0.00,CLR,,0.00,WeatherDisplay:10.37,2013-02-05 05:50:00,
2013-02-04 23:55:00,21.4,16.2,29.85,South,180,7.6,7.6,80,0.00,CLR,,0.00,WeatherDisplay:10.37,2013-02-05 05:55:00,